"Pseudo-MPEC" for Sar2517

Created 2020 Nov 23 8:07:29 UT using Find_Orb

Click here for an explanation of pseudo-MPECs

 
 Astrometry: 
     Sar2517  C2020 11 22RXHo#(=dWxpOZ.Ko6EjPv]A(=;RV\*h+lgq0EI[N*C8j!(@Q?aSHK88
     Sar2517  C2020 11 22$HT5+^#j8oW/VYa+=*_svOt%I%xd2BZTWe95U+*g;dwN%\EcA`JlK88
     Sar2517  C2020 11 22?sq=7)Z=r7)eL8q1YfOW:U9_r5WX_#w3NoJ13^N_vWKJvg)bq:VLK88
     Sar2517  C2020 11 22.oxw1\).IWWNhj2*bNU?x+,[m#v#)^r\[Rmq[UAl3IZW5Pax$p=VK88
     Sar2517  C2020 11 22!#8H[hKwaOmXdISV\j98AUjyKa0MdOyjUp,r16fiiCW%yGrkBM[BK88
     Sar2517  C2020 11 22yvR;T/:xd2Hq+Y-KHa:E?y@7je8jx=x-2PrDRCO1*T4kn3dg2*%#K88
     Sar2517 1C2020 11 22FD]__):W\!ifM3?p=*TqF@R0-nfundX-r7tOMPrm#+2N=(N5(nA8246
     Sar2517 1C2020 11 22U`,B[U`nbg@y;oEgtIL`Q)W3Wm%4TZN;Vdp=2X^R2y!lEh@Hn'yw246
     Sar2517 1C2020 11 22^2.+(3t7nHRJfgx4KP%QAstrometrym$sgBnY?-EN8Na2e/5qZ!s246
     Sar2517 1C2020 11 22!aM*,6cd/PjQyIK,nyxB:eaJX^U+_/mf:/rPL\9k!Opaxo`tcK\g246
     Sar2517 1C2020 11 22%:KZF1jmw*VJ4(`M*gr`phGH7aC!f%BksnLsYfVvZh$A;cbh#2V$246
     Sar2517 1C2020 11 22[Hf$#R]ED09J*L@p]tm=bK8WhEk3VJH$6'B=LfM@jWl0()*OGF_$246
     Sar2517 1C2020 11 22C:IhM%8O](UdKrkkEe\W1F_;+4bQh!U1;YTB8lqvu:R_kRJM/6Nn246
     Sar2517 1C2020 11 22QY(mdpHt\d-6,E\Xu1^j17O#iT*RjXFuk(B0Rj*hT7$;6;sfL1V^246
     Sar2517 1C2020 11 22_aEmEw7Xw2IYredacted;.Yfy=T-.3yNOe;u^=Zy=NE:e#lR%`:k246
     Sar2517 1C2020 11 229WF!@YW?--^aHYF?my\ADQaGwm(-Bn!S:sMYl4@PuB/u#uxxs)_u246
     Sar2517 1C2020 11 22,#):Ew;xkqLP,Ko[G$Wc[,bZ%ksL#UtR5!w,M;6E!a:\/smLTy4h246
     Sar2517 bC2020 11 22%Zb%,B];_mQ:j7A_Mg:i'vRTj$cimQH'm(g5e(+JO6??M`XUMrD/L01
     Sar2517 KC2020 11 22.05638704 17 24.50 +07 56 09.0    ~BM1q 18.6 GVNEOCPI93
     Sar2517 bC2020 11 22HPcl.6!X^\KfI;QQV7Oy51s=]qL,!iR0phe(MH-9KHE#IU]:*7XsL01
     Sar2517 bC2020 11 22HR6,#bl%,D5V3T^:k-NnR+=ah1EYi?(uU4yrZ$$$m4kGr+$=9R1EL01
     Sar2517 bC2020 11 227(-Y9,9)KA$[/WSC[1G(Em*qR.4k:7Q(x0B^#%0x]E-;xPPcR3byL01
     Sar2517 bC2020 11 22=3QKGCe!4p*fZ$^_4\B3D]1NhNZ!6YIeCKb.P$0p8jtvOc3rvW/bL01
     Sar2517 KC2020 11 22.05958204 17 21.60 +07 54 29.2    ~BM1q 19.2 GVNEOCPI93
     Sar2517 bC2020 11 22_w6@R'SJ*rm/Z!60YrkUH@[l:l,Sm`NY0XR$hf%XQ9XWeIf3D*I6L01
     Sar2517 KC2020 11 22.06277804 17 18.71 +07 52 49.4    ~BM1q 18.5 GVNEOCPI93
     Sar2517 bC2020 11 22yolU!FH',v;/Gtw3UdmgvX7bE[GHKF!?d$GJT@cc;:voI;7kt(SsL01
     Sar2517  C2020 11 22cB4`,YJZZt4vox_d86Yb+uSvI[)vx*f*$s`8C@rrUog-.QyDd;O9K88
     Sar2517  C2020 11 22n%O/8'mWnw5g8M02F\Ao#N#.NHrCQe81'A@@I3Q=d@^HHiH+0=._K88
     Sar2517  C2020 11 22@=gBi0NU_6D%0Gl;dV\H3*pVRUfod%i[FfJW:YYSJW2Z$$vB42D!K88
     Sar2517 KC2020 11 22oWHJDqh#`IJLN'@a:s1L_l*cB'RTKSpterE/igfOk6V?qP2Jl8/8K38
     Sar2517 KC2020 11 22BMZ#%4O2^IwVH`E6MN'c^[5ZG995Ox9.fhAJkrZ:3Y*`be#F?8[SW34
     Sar2517 KC2020 11 22_NZRQxhZw'icIdhn6bI\F/x13D*KZ^e.=9p_tm@c1C'S8=UTgk!PW34
     Sar2517 KC2020 11 22if=hqiH/.0'%$wexk_;V)B/u9O0*WyKtAB=i+%T2+X/J0TcKdlGsK38
     Sar2517 KC2020 11 22A`8KAUxULwD@a#ts.,]27vABhOd)AiJCxHyYNP[LpwPEp8QSKHE!204
     Sar2517 KC2020 11 22C!Cf*aoLP?IOA.oRCvI@LHkdyDi!CDExh1))ZUZyXc@[Kignejik204
     Sar2517 KC2020 11 228Z0lXyGVDlTfW]o7l)6KF0`q'@?Lc1dwA0/@Xe$@^6WTM$7O^(i/W34
     Sar2517 KC2020 11 22(JOHv8Y;5TKEt]dmb^Qx_%@wwI5lDbtdmfC.VQ3UK?sg$$etdDn;K38
     Sar2517 KC2020 11 22v=Pct%H)L54kX^M?1:C5YqyWe:S(D/k?NKgWQV7f!oh!-oA/TB6-204
     Sar2517 KC2020 11 22.16768604 15 53.24 +06 58 20.7    ~BM4M 18.05GVNEOCPI52
     Sar2517 KC2020 11 22.16825204 15 52.74 +06 58 03.0    ~BM4M 18.34GVNEOCPI52
     Sar2517 KC2020 11 22.16881604 15 52.23 +06 57 45.5    ~BM4M 18.07GVNEOCPI52
     Sar2517 KC2020 11 22y!S^Fb)e6.-G`=_L?.ntcoZL44n$vmYxFqDc!dScKU#h:)aw\:QyV01
     Sar2517 KC2020 11 22f?gZw=NW;NN:k)XEG)JKnTgpQ#5FTh2N/mKMu(B#1\onn:clickoV01
     Sar2517 KC2020 11 22Qn@#btD2%G!KUi8)S+UZ7]_RK-F@_:`V4`Cn-Dsbh1herelAp!!PV01
     Sar2517 KC2020 11 22l#4o@@Jg`c[!%lie5]L31h!v4vm5wC(U1QK,KOs18.fqV6imb#XQ470
     Sar2517 KC2020 11 22$U?UHU,E7a1hg=9pj$cxEZSUKv3y[X6^3^m?]^[n1sr!w[TvpaQA470
     Sar2517 KC2020 11 22.84803404 05 54.54 +00 57 53.4    ~BMKq 18.4 GVNEOCPJ95
     Sar2517 KC2020 11 22.85156204 05 51.40 +00 55 59.7    ~BMKq 18.6 GVNEOCPJ95
     Sar2517 KC2020 11 22.85549004 05 47.89 +00 53 54.8    ~BMKq 18.8 GVNEOCPJ95
     Sar2517 KC2020 11 22.85875504 05 44.94 +00 52 10.6    ~BMKq 18.7 GVNEOCPJ95
     Sar2517 KC2020 11 22]T.]5';%?(cfGFJ\oP^IW\ljwbQ(]46FqKMfPFnm2pn6Rcf7CiHY595
     Sar2517 KC2020 11 22i:I@WTIni_::eA'ogO=Sy1iRNUCKDk_h_b.=1e,K%F6G'_h1v0ge595
     Sar2517 pC2020 11 22ou_As*ZajBJ`_[KE,+FvR'\t8^pI6?u1Y^cvF-spnX+sXl$$h0+J595
     Sar2517 KC2020 11 22+DcUGik@dVy[;c1;p*e=p8ubS+M^U2\rA];3$CW;8@Ske/(i!W+rK63
     Sar2517 KC2020 11 22d6EF19RvZ?T:c2/!,5/w'a\pmV4Wl34lDM1QIEpX93jHiP]x(8%iK63
     Sar2517 KC2020 11 22NP_B,tSRagE`n07UaPHutpdJ-REAuNK5pW/#dJE/09?!1Ncav^5FK63
     Sar2517 KC2020 11 22`SlS9B'eWQv@.`jSIUGBVXp?tFW/l3IF+SE^Zd;e:[sUK'$ZNG7`G17
     Sar2517 KC2020 11 22q0ZhD0Um0a/=`Gw$bbC6sI=R)Eyt+p+@hMdy\WcCA')hXaQuN1SQG17
     Sar2517 KC2020 11 22(+5M^/XUnxCuvXt:!;u_)S4(cm4nus)Xm[3;307Pao$UJsPcV]dkG17
     Sar2517 KC2020 11 22fD.YX/R`10-FwHZa9d.BW3;-vqk`1_Jj='yIAe3N10PELj/Nx+`eC82
     Sar2517 KC2020 11 22Fmbr84Ia9nY@G(;2ix?C,c-5b8u'9hi1[Fy^a8,@2T#M@spyjb`SC82
     Sar2517 KC2020 11 22ouoapw8@es@e2(WHDL%Kmxvexf'8forsP3i8)@8A`Xo'w'cTyeRLZ99
     Sar2517 KC2020 11 22kXsiT8At@Ympl6bOVUKq3@R0!;TZKZK)So7l61fJX6poyF%.qPAkC82
     Sar2517 KC2020 11 22(+Fw#TXN5]WhRn4CYm87cajcfxZ=s%y$%w[Z/0olA7EjLhI5;qxaC82
     Sar2517 KC2020 11 22bi9v`2V9j[jLoy\F#VEG\gqb2ZT5upX5Gr!#1l8.UT!1\FYr3*[iZ99
     Sar2517 KC2020 11 22poD+Dn=Y;i5!'1Wys2-y464Q.[ikR8i7]^/pyx+rS2)0ewrU1kkEZ99
     Sar2517 KC2020 11 23B!XCmd\\!s@dit=ulpau[MQXy,CjRBgRDEu7/1Md*nONBlI4dcQkX31
     Sar2517 KC2020 11 23:/kR5RO^s!4d0E7O*_XX'$';@E$r7r[\shq%=td6ux`w75'Qm_XqX31
     Sar2517 KC2020 11 23@tk@R=WKy9xg0W*^ut4MNtK?c,p0FO[@#L`UjqZCd20uDn3?BGmpX31
     Sar2517 KC2020 11 23ur58$,H$5]E80_GTW\QAH;pl/^f+_YU[+jMcPPh?3g1wL3Q]o(Yq734
     Sar2517 KC2020 11 23CO,3*kM=FbHk5eAeS;StLP!_\^.=bGDH4(naE:IG+_2'$@BW:nbo734
     Sar2517 KC2020 11 23TDTbbKB$r@'aHuHG5rHu15iUx!Ilc?-M=Ix9NKZU2\P4*?,Rnqgp734
     Sar2517 KC2020 11 23;vH;YsofFfix=I`r5BJv03j\;wQcmQXLJNlJ:[H@SLZKa#(e]XPpH21
     Sar2517 KC2020 11 232K=c[V-9\WA([6c)0/kBKH$6+6fV8R'V;)kKj*-!5\S?IOKksI6Y734
     Sar2517 KC2020 11 23_W5x/p.%SSPC]8D=M3ZE:*NeON9y?L8v;j_1Rdd+oaC-+`ZetodhH21
     Sar2517 KC2020 11 23y9-NAF'`rt63dvx=:/#Eb,Q'ZFy9/'ZVcu(]1p!an1ueh@\Qg2`gH21
     Sar2517 KC2020 11 23Xb@qr!,(d'0G8ITOAV`u(713=xF$?X@9Pl;\t%=_'UeP/nK?.Bo7734
     Sar2517 KC2020 11 23YJvYJTR)Ol3u-Ip2f/9uNC_CIXQkMh$.mTA=explanation/s8e3H21
     Sar2517 KC2020 11 23.16369704 01 17.63 -01 49 55.6    ~BN4Mx18.29GVNEOCPI52
     Sar2517 KC2020 11 23.16445004 01 16.94 -01 50 19.8    ~BN4Mx18.65GVNEOCPI52
     Sar2517 KC2020 11 23.16520604 01 16.27 -01 50 43.7    ~BN4Mx18.45GVNEOCPI52

Station data:
(204) Schiaparelli Observatory  (N45.867933 E8.770800)  Italy.  Observer L.
   Buzzi. 0.60-m f/4.64 Newtonian + CCD.
(246) Klet Observatory-KLENOT  (N48.863293 E14.288100)  Czech Republic.
   1.06-m KLENOT telescope.
(470) Ceccano  (N41.570282 E13.327560)  Italy. 0.28-m Schmidt-Cassegrain.
(595) Farra d'Isonzo  (N45.915734 E13.525780)  Italy.  Observers L.
   Bittesini, F. Fabris, E. Pettarin, F. Piani. Measurer E. Pettarin. 0.30-m
   f/4.5 reflector + CCD.
(734) Farpoint Observatory, Eskridge  (N38.890107 W96.001400)  US/Kansas.
   Observer G. Hug. 0.69-m reflector + CCD.
(C82) Osservatorio Astronomico Nastro Verde, Sorrento  (N40.618683
   E14.357630)  Italy.
(G17) BAS Observatory, Scandicci  (N43.752136 E11.202610)  Italy.
(H21) Astronomical Research Observatory, Westfield  (N39.483057 W87.968270)
   US/Illinois. 0.76-m f/3.0 astrograph + CCD.
(I52) Steward Observatory, Mt. Lemmon Station  (N32.442547 W110.788920)
   US/Arizona.  Observers T. A. Pruyne, B. M. Africano, E. J. Christensen, G.
   A. Farneth, D. C. Fuls, A. R. Gibbs, A. D. Grauer, H. Gröller, J. A.
   Johnson, R. A. Kowalski, S. M. Larson, G. J. Leonard, D. Rankin, R. L.
   Seaman, F. C. Shelly. 1.0-m reflector + CCD.
(I93) St Pardon de Conques  (N44.558710 W0.203000)  France.  Observer F.
   Losse. 0.40-m f/3.7 reflector + CCD.
(J95) Great Shefford  (N51.474969 W1.447003)  UK.  Observer P. Birtwhistle.
   0.40-m f/6.0 Schmidt-Cassegrain + CCD.
(K38) M57 Observatory, Saltrio  (N45.873785 E8.918240)  Italy.
(K63) G. Pascoli Observatory, Castelvecchio Pascoli  (N44.082410 E10.462000)
   Italy.
(K88) GINOP-KHK, Piszkéstető  (N47.917622 E19.893600)  Hungary.  Observer K.
   Sárneczky. 0.60-m Schmidt + CCD.
(L01) Višnjan Observatory, Tičan  (N45.290900 E13.749300)  Croatia.
   Observers K. Korlević, E. Pettarin. Measurer E. Pettarin. 1.0-m f/2.9
   reflector + CCD.
(V01) Mountainville Observatory, Alpine  (N40.448904 W111.760890)  US/Utah.
(W34) Squirrel Valley Observatory, Columbus  (N35.225393 W82.154700)
   US/North Carolina.  Observer R. L. Flynn. 0.35-m f/1.9 Schmidt-Cassegrain
   + CCD.
(X31) Galileo Galilei Observatory, Oro Verde  (S31.823022 W60.520660)
   Argentina.
(Z99) Clixby Observatory, Cleethorpes  (N53.546062 W0.021260)  UK.

Orbital elements:  Sar2517
   Perihelion 2021 Feb 23.955499 TT = 22:55:55 (JD 2459269.455499)
Epoch 2020 Nov 22.0 TT = JDT 2459175.5   Earth MOID: 0.0839   Ve: 0.0573
M 254.56387513                      (J2000 ecliptic)
n   1.12219216     Peri.  317.46734
a   0.91711661     Node   239.31561
e   0.3228811      Incl.   48.93405
P   0.88/320.79d   H   23.3     G   0.15   q 0.62099697  Q 1.21323625
64 of 82 observations 2020 Nov. 22 (22.0 hr); mean residual 2".40
Residuals in arcseconds: 
201122 K88  .13-  .09-    201122 K88  .09-  .53+    201122 K63  1.1+  .58-    
201122 K88  .26-  .78-    201122 K88  .24-  .01-    201122 G17  .78+  .01+    
201122 K88  .72+  1.2+    201122 K38  .20-  .26-    201122 G17  1.1+  .15-    
201122 K88  .04-  .47+    201122 W34  .18+  .29-    201122 G17  .92+  .09+    
201122 K88  .22-  .78+    201122 W34  .07-  .08-    201122 C82  .25+  .61-    
201122 K88  .11-  .60+    201122 K38  .09-  .51-    201122 C82  1.1+  .77-    
